Location: Unspecified
(0.0000°N, 0.0000°E)
Time: 07:18:41
(UTC+02:00)

Centaur D-1AR AC-41 - Visible Passes

Search period start: 29 March 2017 00:00
Search period end: 08 April 2017 00:00
Orbit: 610 x 36230 km, 21.4° (Epoch: 27 March)

Date Brightness Start Highest point End Pass type
(mag) Time Alt. Az. Time Alt. Az. Time Alt. Az.
29 Mar 7.3 01:14:26 10° SW 02:01:40 61° ESE 11:26:15 10° ENE visible
29 Mar 6.6 22:43:05 10° SW 23:38:18 18° ESE 08:45:52 10° ENE visible
31 Mar 11.0 02:15:11 10° ENE 04:20:58 19° ENE 05:35:12 10° ENE visible
01 Apr 5.8 05:39:50 39° WSW 06:46:35 51° W 15:13:52 10° E visible
02 Apr 7.6 03:16:25 79° S 04:51:56 86° NE 12:41:49 10° ENE visible
02 Apr 6.8 23:56:29 10° SW 00:52:59 42° ESE 10:06:02 10° ENE visible
03 Apr 6.1 21:25:51 10° SSW 21:31:30 23° SSE 07:18:49 10° ENE visible
05 Apr 9.4 06:54:22 18° W 08:01:02 28° W 11:06:49 10° WNW visible
06 Apr 6.6 04:30:51 61° WSW 05:24:50 69° W 13:56:12 10° E visible
07 Apr 7.3 01:10:27 10° SW 02:07:19 67° ESE 11:23:00 10° ENE visible
